Home   Weather   Trieste   Past weeks

Flag for Italy Past Weather in Trieste, Italy — Yesterday and Last 2 Weeks

Now
35 °F

Scattered clouds.


Feels Like: 22 °F
Forecast: 34 / 42 °F
Wind: 28 mph from Northeast

Location: Trieste

Current Time: Jan 18, 2017 at 9:27:38 am

Latest Report: Jan 18, 2017 at 8:00 am


Visibility: 13 mi

Pressure: 30.18 "Hg

Humidity: 49%

Dew Point: 18 °F

Location of TriesteLocation

Past Weather in Trieste — Graph

°F

Trieste Temperature Yesterday

Maximum temperature yesterday: 41 °F (at 12:00 pm)
Minimum temperature yesterday: 35 °F (at 11:00 pm)
Average temperature yesterday: 37 °F

High & Low Weather Summary for the Past Weeks

 TemperatureHumidityPressure
High51 °F (Jan 13, 9:00 am)100% (Jan 12, 8:00 pm)30.44 "Hg (Jan 12, 8:00 pm)
Low20 °F (Jan 11, 2:00 am)10% (Jan 7, 11:00 pm)29.41 "Hg (Jan 13, 1:00 pm)
Average36 °F53%30.05 "Hg
* Reported Jan 3 8:00 am — Jan 18 8:00 am, Trieste, Weather by CustomWeather, © 2017

Note: Actual official high and low records may vary slightly from our data, if they occured in-between our weather recording intervals... More about our weather records

Advertising

Trieste Weather History for the Previous 24 Hours

Scroll right to see more
 ConditionsComfort  
Time TempWeatherWind HumidityBarometerVisibility
8:00 am
Wed, Jan 18
35 °FScattered clouds.28 mph49%30.18 "Hg12 mi
7:00 am36 °FPassing clouds.28 mph48%30.17 "Hg12 mi
6:00 am35 °FClear.28 mph47%30.16 "Hg12 mi
5:00 am35 °FClear.24 mph47%30.17 "Hg12 mi
4:00 am35 °FClear.24 mph47%30.18 "Hg12 mi
3:00 am35 °FClear.26 mph47%30.18 "Hg12 mi
2:00 am35 °FClear.26 mph47%30.17 "Hg12 mi
1:00 am35 °FClear.32 mph47%30.17 "Hg12 mi
12:00 am35 °FClear.25 mph46%30.16 "Hg12 mi
11:00 pm
Tue, Jan 17
35 °FClear.28 mph48%30.16 "Hg12 mi
10:00 pm36 °FPassing clouds.26 mph48%30.16 "Hg12 mi
9:00 pm36 °FPassing clouds.24 mph48%30.15 "Hg12 mi
8:00 pm36 °FClear.25 mph53%30.14 "Hg12 mi
7:00 pm36 °FPassing clouds.24 mph51%30.12 "Hg12 mi
6:00 pm37 °FPassing clouds.28 mph50%30.11 "Hg12 mi
5:00 pm37 °FPassing clouds.26 mph50%30.09 "Hg12 mi
4:00 pm38 °FPartly sunny.20 mph46%30.09 "Hg12 mi
3:00 pm38 °FPartly sunny.24 mph44%30.06 "Hg12 mi
2:00 pm39 °FPartly sunny.26 mph39%30.06 "Hg12 mi
1:00 pm40 °FScattered clouds.26 mph37%30.06 "Hg12 mi
12:00 pm41 °FScattered clouds.25 mph37%30.03 "Hg12 mi
11:00 am40 °FPartly sunny.25 mph40%30.04 "Hg12 mi
10:00 am38 °FPartly sunny.23 mph42%30.04 "Hg12 mi
9:00 am38 °FOvercast.25 mph42%30.01 "Hg12 mi
Weather by CustomWeather, © 2017

See weather overviewHow to use our weather pages